Total_Precipitation_Accumulation
2.67 2.89 3.81 3.81 3.30 2.95 2.77 2.66 2.56 2.66 2.42 2.36 2.52 2.54 2.73 2.89 3.03 3.00 2.94 3.12 3.49 4.10 4.58 4.57 4.23 3.93 3.73 3.55 3.30 3.00 2.89 2.97 3.15 3.35 3.52 3.66 3.85 3.79 3.81 3.64 3.43 2.61 2.62
2.37 2.65 3.53 3.66 3.14 2.85 2.71 2.58 2.61 2.49 2.38 2.46 2.63 2.67 2.91 3.06 3.06 3.02 3.06 3.26 3.50 4.07 4.49 4.13 3.70 3.40 3.34 3.20 2.90 2.71 2.80 3.13 3.35 3.57 3.76 3.69 3.98 4.04 3.88 3.57 3.49 2.57 2.46
1.99 2.14 2.70 3.28 3.12 2.82 2.65 2.60 2.56 2.34 2.33 2.52 2.74 2.75 2.89 2.99 3.10 3.20 3.39 3.54 3.77 4.19 4.05 3.59 3.14 2.97 2.89 2.78 2.67 2.65 2.93 3.40 3.60 3.88 4.17 3.29 3.27 3.93 3.87 3.51 3.15 2.49 2.28
1.63 1.80 2.17 2.73 2.84 2.61 2.40 2.37 2.35 2.30 2.31 2.56 2.90 2.79 2.86 2.95 3.10 3.31 3.66 3.64 3.66 3.63 3.27 3.15 2.84 2.62 2.44 2.47 2.51 2.60 2.96 3.34 3.72 4.12 3.96 2.84 2.59 3.28 3.45 3.15 2.95 2.50 2.16
1.43 1.64 2.17 2.50 2.52 2.46 2.30 2.31 2.39 2.51 2.57 2.81 2.93 2.74 2.77 2.78 2.92 3.21 3.70 3.60 3.37 3.09 2.85 2.84 2.60 2.46 2.18 2.12 2.31 2.59 2.87 3.30 3.86 3.66 2.89 2.73 2.69 2.98 2.94 2.77 2.81 2.51 2.13
1.31 1.62 2.10 2.26 2.03 2.08 2.25 2.33 2.41 2.64 2.86 2.98 2.77 2.72 2.70 2.74 2.75 2.91 3.14 3.17 3.04 2.74 2.63 2.56 2.35 2.20 2.08 2.05 2.32 2.64 2.94 3.59 3.72 2.60 2.32 2.43 2.41 2.71 2.74 2.81 2.75 2.46 2.22
1.37 1.70 1.87 2.08 1.85 1.73 1.89 2.13 2.42 2.72 3.00 2.91 2.63 2.46 2.42 2.45 2.49 2.53 2.62 2.70 2.70 2.55 2.47 2.39 2.27 2.08 2.14 2.11 2.26 2.55 2.97 3.55 3.12 2.31 2.26 2.45 2.35 2.33 2.56 2.80 2.81 2.52 2.36
1.43 1.57 1.81 1.99 1.80 1.71 1.83 1.94 2.14 2.56 2.82 2.66 2.41 2.28 2.19 2.11 2.11 2.19 2.31 2.46 2.51 2.37 2.23 2.17 2.12 2.09 2.09 2.00 2.04 2.41 2.87 2.88 2.44 2.11 2.07 2.34 2.18 2.19 2.47 2.69 2.72 2.62 2.54
1.64 1.83 1.85 1.72 1.72 1.88 2.09 2.21 2.22 2.50 2.60 2.45 2.35 2.21 2.10 2.00 2.05 2.07 2.05 2.19 2.28 2.24 2.16 2.07 2.04 2.00 2.03 2.01 2.08 2.38 2.70 2.82 2.51 2.37 2.06 2.17 1.97 2.19 2.60 2.61 2.55 2.60 2.66
1.78 1.82 1.78 1.61 1.66 1.72 1.96 2.40 2.51 2.55 2.54 2.46 2.36 2.28 2.13 2.04 2.17 2.20 1.97 2.18 2.26 2.34 2.29 2.30 2.38 2.11 2.08 2.23 2.36 2.72 2.95 2.84 2.44 2.50 2.67 2.24 1.96 2.29 2.80 2.82 2.60 2.60 2.70
2.04 1.92 1.77 1.46 1.60 1.83 2.05 2.21 2.38 2.44 2.60 2.68 2.63 2.48 2.47 2.53 2.51 2.61 2.37 2.75 2.75 2.77 2.71 2.74 2.81 2.66 2.57 2.47 2.68 2.99 3.10 2.71 2.68 2.95 2.87 2.21 2.10 2.62 3.10 2.96 2.81 2.83 2.83
2.34 2.14 1.91 1.65 1.72 2.01 2.00 2.02 2.24 2.24 2.45 2.62 2.77 2.66 2.97 3.26 3.09 2.43 2.79 3.31 3.48 3.45 3.31 3.35 3.49 3.26 2.90 2.64 3.20 3.60 3.08 2.96 3.11 3.09 2.94 2.65 2.75 3.22 3.59 3.34 3.20 3.17 3.08
2.32 2.22 2.16 2.02 2.02 1.98 2.12 2.09 2.28 2.48 2.89 2.82 2.74 2.75 3.21 3.12 2.83 2.61 2.94 3.46 3.90 3.66 3.39 3.47 3.65 3.23 3.26 3.55 3.87 3.96 3.50 3.37 3.40 3.29 3.09 3.03 3.32 3.84 4.32 4.11 3.56 3.31 3.25
2.77 2.66 2.57 2.49 2.43 2.47 2.43 2.31 2.25 2.37 2.63 2.77 2.99 2.76 3.09 3.40 3.34 3.28 3.62 3.62 3.87 3.97 4.30 4.05 4.17 3.97 3.88 3.68 3.82 4.09 4.02 4.12 3.76 3.88 3.95 3.69 3.76 4.22 4.80 4.89 4.33 3.83 3.53
3.18 3.08 3.05 2.98 2.98 3.06 3.06 2.92 2.39 2.56 2.67 2.82 3.14 3.16 3.29 3.66 3.84 3.90 3.93 3.86 3.54 3.83 4.27 4.56 4.14 4.47 4.48 4.04 3.74 3.66 3.75 3.88 4.00 4.26 4.27 4.48 4.36 4.41 5.02 5.34 5.01 4.63 4.33
3.29 3.53 3.74 3.67 3.57 3.65 3.60 3.50 3.28 3.06 3.27 3.26 3.44 3.66 3.86 4.22 4.44 4.37 4.18 4.09 3.69 3.62 3.96 4.16 4.14 4.65 4.48 4.19 3.56 3.41 3.49 3.83 4.12 4.21 4.30 4.80 4.75 4.55 4.70 5.27 5.63 5.54 5.15
3.45 4.07 4.45 4.48 4.36 4.40 4.40 4.12 3.84 3.78 3.79 4.07 4.35 4.43 4.44 4.57 4.89 4.69 4.45 4.02 3.76 3.75 4.01 3.99 4.03 4.19 3.97 3.83 3.56 3.61 3.65 3.84 3.99 4.19 4.39 4.73 4.62 4.27 4.26 4.63 5.41 5.88 6.05
3.81 4.51 4.93 5.05 5.23 5.14 5.21 5.00 4.58 4.47 4.48 4.53 4.67 4.88 4.66 4.64 4.57 4.67 4.35 3.84 3.84 3.77 3.87 4.09 3.95 4.03 4.00 3.96 3.92 3.68 3.70 3.79 3.54 3.72 3.94 4.08 4.33 3.94 4.07 4.32 4.76 5.32 6.18
4.20 4.94 5.49 6.07 6.29 6.12 5.88 5.57 5.28 5.26 5.12 4.95 4.94 4.95 4.82 4.48 4.25 4.52 4.26 4.01 3.86 3.80 3.72 3.49 3.99 4.14 4.17 4.16 3.82 3.76 3.40 3.15 3.02 2.93 3.08 3.08 3.45 3.69 3.97 4.06 4.49 4.92 5.88
4.31 5.08 5.81 6.57 6.78 6.51 6.00 5.80 5.78 5.60 5.29 5.03 4.82 4.80 4.48 4.24 3.88 4.14 3.85 3.77 3.86 4.04 3.91 3.96 4.32 4.33 3.99 4.09 3.61 3.49 3.33 2.91 2.82 2.78 2.64 2.67 2.76 2.85 3.43 4.07 4.77 4.46 4.89
4.46 5.18 5.87 6.51 6.65 6.52 6.20 5.90 5.66 5.21 4.91 4.59 4.34 4.21 3.97 3.68 3.55 3.95 3.60 3.95 3.81 3.78 3.65 3.63 3.87 3.91 3.55 3.73 4.11 3.72 3.13 2.73 2.67 2.53 2.52 2.62 2.49 2.66 3.17 3.88 4.45 4.55 4.28
4.20 4.81 5.22 5.37 5.23 5.15 5.25 5.21 4.94 4.93 4.76 4.69 4.54 4.44 3.98 3.75 3.62 3.39 3.63 3.44 3.41 3.59 3.41 3.37 3.62 3.60 3.24 3.56 3.88 4.01 3.48 3.23 2.71 2.08 2.27 2.47 2.57 2.85 2.89 3.06 3.69 4.22 4.11
3.70 4.07 4.09 4.11 4.14 4.29 4.39 4.34 4.39 4.61 4.69 4.80 4.79 4.60 4.24 4.00 3.79 3.56 3.42 3.27 3.26 3.07 3.26 3.34 3.38 3.52 3.51 3.40 3.46 3.86 3.62 3.26 2.78 2.23 2.08 2.35 2.76 3.10 3.01 3.04 3.03 3.44 3.69
2.96 3.14 3.14 3.29 3.49 3.62 3.71 3.69 3.60 3.65 3.92 4.21 4.50 4.66 4.60 4.31 4.00 3.66 3.40 3.18 3.04 2.83 3.15 2.83 2.99 3.33 3.57 3.26 3.19 3.13 3.14 3.32 3.23 2.82 2.29 2.12 2.38 2.65 2.71 2.59 2.69 3.03 3.34
2.22 2.40 2.48 2.76 3.26 3.49 3.55 3.66 3.62 3.37 3.39 3.51 3.67 3.91 3.92 3.95 3.75 3.34 3.24 3.17 2.98 2.77 2.82 2.82 3.19 3.19 3.16 3.09 3.16 3.10 3.22 3.44 3.23 3.09 2.75 2.58 2.64 2.49 2.36 2.36 2.48 2.70 3.06
1.84 2.00 2.23 2.56 3.15 3.46 3.54 3.44 3.47 3.50 3.58 3.49 3.46 3.57 3.49 3.46 3.36 3.04 2.90 3.06 2.95 2.83 2.87 2.87 2.97 3.02 3.17 3.23 3.23 3.22 3.29 3.29 3.33 3.52 3.15 2.91 2.87 2.51 2.36 2.38 2.51 2.71 2.94